GW4166 Weather Reports


Display with metric or nautical units.
time (UTC)temp
F
wind
direction
speed
MPH
gust
MPH
rain 1hr
in
rain 24hr
in
rain mn
in
humidity
%
barometer
mb
20260504010027 53 220 1.0 4.0 0.00 0.00 0.00 46 1012.1
20260504004529 53 224 2.0 3.0 0.00 0.00 0.00 46 1012.0
20260504003028 53 209 1.0 3.0 0.00 0.00 0.00 45 1012.0
20260504001530 53 230 1.0 3.0 0.00 0.00 0.00 45 1012.1
20260504000030 54 210 1.0 3.0 0.00 0.00 0.00 44 1012.0
20260503234533 54 235 1.0 4.0 0.00 0.00 0.00 42 1012.0
20260503233029 55 259 1.0 4.0 0.00 0.00 0.00 42 1011.8
20260503231543 55 253 1.0 4.0 0.00 0.00 0.00 41 1011.9
20260503230030 55 271 1.0 5.0 0.00 0.00 0.00 40 1012.0
20260503224528 56 201 2.0 5.0 0.00 0.01 0.00 40 1012.0
20260503223028 56 271 1.0 5.0 0.00 0.01 0.00 42 1012.1
20260503221529 57 253 1.0 4.0 0.00 0.01 0.00 41 1012.0
20260503220035 57 197 1.0 4.0 0.00 0.01 0.00 39 1012.0
20260503214531 57 273 1.0 10.0 0.00 0.01 0.00 40 1011.9
20260503213047 57 196 2.0 4.0 0.00 0.01 0.00 39 1011.9
20260503211529 56 248 1.0 6.0 0.00 0.01 0.00 41 1011.9
20260503210029 57 224 2.0 8.0 0.00 0.01 0.00 39 1011.9
20260503204549 57 228 2.0 9.0 0.00 0.01 0.00 39 1012.1
20260503203030 56 207 1.0 6.0 0.00 0.01 0.00 40 1012.2
20260503201530 56 239 2.0 6.0 0.00 0.01 0.00 42 1012.2
20260503200030 56 270 1.0 5.0 0.00 0.01 0.00 40 1012.5
20260503194529 55 219 2.0 7.0 0.00 0.01 0.00 41 1012.8
20260503193029 56 228 1.0 7.0 0.00 0.01 0.00 41 1013.0
20260503191528 57 248 3.0 5.0 0.00 0.01 0.00 43 1013.2
20260503190027 56 205 2.0 8.0 0.00 0.01 0.00 41 1013.4
20260503184533 56 269 2.0 8.0 0.00 0.01 0.00 39 1013.5
20260503183038 57 139 1.0 8.0 0.00 0.01 0.00 43 1013.5
20260503181527 57 257 2.0 5.0 0.00 0.01 0.00 40 1013.8
20260503180032 56 212 1.0 5.0 0.00 0.01 0.00 42 1013.9
20260503174538 56 224 1.0 8.0 0.00 0.01 0.00 41 1014.2
20260503173028 54 208 3.0 6.0 0.00 0.01 0.00 43 1014.3
20260503171533 54 224 3.0 9.0 0.00 0.01 0.00 41 1014.4
20260503081544 32 0 0.0 0.0 0.00 0.01 0.00 85 1014.6
20260503071551 33 0 0.0 0.0 0.00 0.01 0.00 83 1014.3
20260503054534 34 284 0.0 2.0 0.00 0.01 0.00 78 1014.7
20260503053029 34 0 0.0 2.0 0.00 0.01 0.00 77 1014.7
20260503051536 35 286 0.0 2.0 0.00 0.01 0.00 77 1014.9
20260503050030 35 0 0.0 2.0 0.00 0.01 0.00 76 1014.9
20260503044530 35 0 0.0 1.0 0.00 0.01 0.00 77 1015.0
20260503043029 35 0 0.0 2.0 0.00 0.01 0.00 76 1014.9
20260503041532 35 0 0.0 2.0 0.00 0.01 0.00 75 1015.0
20260503040029 35 0 0.0 2.0 0.00 0.01 0.00 75 1015.0
20260503034528 36 0 0.0 2.0 0.00 0.01 0.01 74 1015.0
20260503033033 36 0 0.0 2.0 0.00 0.01 0.01 74 1015.1
20260503031535 36 285 0.0 2.0 0.00 0.01 0.01 75 1015.1
20260503030034 36 0 0.0 2.0 0.00 0.01 0.01 74 1015.2
20260503024535 36 281 0.0 2.0 0.00 0.01 0.01 73 1015.2
20260503023031 36 281 0.0 2.0 0.00 0.01 0.01 73 1015.2
20260503021532 37 0 0.0 0.0 0.00 0.01 0.01 72 1015.4
20260503020030 37 0 0.0 2.0 0.00 0.01 0.01 71 1015.4
20260503014528 37 292 0.0 2.0 0.00 0.01 0.01 69 1015.2
20260503013034 37 282 0.0 2.0 0.00 0.01 0.01 69 1015.2
20260503011530 37 0 0.0 1.0 0.00 0.01 0.01 69 1015.1